Lapse_Rate
9.0 9.5 5.9 6.6 6.4 6.1 5.6 5.2 5.0 5.1 5.1 5.2 5.3 5.5 5.5 5.5 5.6 5.7 5.7 5.8 5.7 5.8 6.1 6.0 6.0 6.0 6.1 6.0 5.8 5.6 5.5 5.4 5.5 5.8 5.9 5.9 5.8 5.8 6.0 6.5 7.7 9.3 6.5
9.9 9.2 5.9 6.3 6.1 5.9 5.6 5.5 5.1 5.3 5.2 5.3 5.4 5.5 5.7 6.0 6.0 6.1 6.0 5.8 5.7 6.0 6.2 6.1 6.1 6.2 6.1 6.0 5.9 5.7 5.7 5.7 6.1 6.6 6.5 6.6 6.5 6.2 6.2 6.8 8.0 7.5 6.6
9.8 9.2 7.6 5.9 6.0 6.0 5.9 5.6 5.3 5.4 5.5 5.5 5.5 5.7 6.0 6.0 6.1 6.1 6.1 5.9 5.9 6.0 6.1 6.2 6.0 5.9 5.9 6.0 6.0 6.1 6.1 6.3 6.3 6.4 6.9 7.9 8.2 6.8 6.5 6.6 6.6 6.5 6.6
9.6 9.6 9.2 5.8 5.8 5.9 5.6 5.7 5.6 5.7 5.9 5.7 5.7 5.7 5.9 6.0 6.3 6.4 6.1 6.0 6.2 6.0 6.1 5.9 5.8 5.7 6.0 6.1 6.2 6.3 6.4 6.5 6.3 6.4 7.9 9.4 9.5 6.5 6.9 6.3 6.3 6.4 6.6
9.2 9.0 7.6 5.9 5.7 5.7 5.5 5.5 5.7 5.9 6.1 5.7 5.8 6.1 6.0 6.2 6.1 6.1 5.9 5.8 5.9 5.9 6.0 6.2 5.9 5.9 6.0 6.0 6.2 6.1 6.6 6.7 6.3 7.3 9.6 9.6 9.5 7.4 6.6 6.4 6.2 6.5 7.7
9.9 9.1 5.9 5.9 5.8 5.6 5.6 5.7 5.9 6.0 6.0 5.9 6.1 6.1 6.1 6.3 6.2 6.1 6.0 5.6 5.7 6.0 6.0 6.1 6.0 6.1 6.2 6.1 6.2 6.2 6.4 6.6 6.5 9.5 9.6 8.4 8.7 6.3 6.8 7.3 7.2 6.3 6.6
10.0 9.3 7.6 5.8 6.0 5.8 5.8 6.1 6.0 6.1 6.3 6.1 6.2 6.3 6.3 6.3 6.2 6.1 6.1 5.9 5.9 5.8 5.8 5.8 6.0 6.0 6.1 6.2 6.3 6.3 6.5 6.8 9.0 9.4 8.2 9.7 9.1 6.2 6.9 6.7 6.4 6.1 6.0
10.1 9.6 8.8 5.9 5.7 5.7 5.8 5.9 5.8 5.7 5.8 5.9 6.0 6.1 6.1 6.1 6.0 5.9 5.9 5.8 5.9 6.0 6.0 6.1 6.1 6.1 6.1 6.0 6.2 6.3 6.4 6.6 9.0 8.3 9.5 9.6 5.8 6.1 6.9 6.7 6.4 6.2 6.1
9.8 9.6 9.4 9.1 7.2 6.0 6.0 6.1 5.8 5.9 5.9 6.0 6.2 6.1 6.1 5.9 5.9 5.9 6.0 6.0 6.0 6.2 6.4 6.4 6.5 6.6 6.5 6.2 6.5 6.5 6.5 6.6 8.6 8.9 9.2 9.5 5.5 6.0 6.9 6.7 6.1 6.3 6.2
9.9 9.2 9.3 9.2 9.3 9.2 7.5 6.2 6.0 5.8 6.0 6.2 6.3 6.1 5.9 5.8 5.8 5.8 5.7 5.9 6.2 6.3 6.5 6.5 6.7 7.2 6.8 6.7 6.5 6.6 6.5 6.8 9.4 9.4 8.0 7.9 5.8 6.2 6.6 6.5 6.3 6.3 6.3
9.8 9.9 9.8 9.3 9.1 9.2 9.3 7.9 6.3 6.2 6.3 6.4 6.6 6.3 6.2 9.4 9.0 9.3 9.1 6.7 6.3 6.3 6.4 6.5 6.4 6.7 6.5 6.5 6.6 6.6 6.5 9.5 9.6 9.6 9.1 6.2 5.9 6.2 6.2 6.3 6.4 6.1 6.5
9.4 9.7 10.0 9.8 9.6 9.4 9.5 9.0 9.2 9.3 9.3 9.3 9.4 9.2 9.1 9.5 9.4 8.9 8.0 6.6 6.4 6.4 6.5 6.5 6.6 6.5 6.6 8.6 9.0 7.2 9.4 9.6 9.6 9.6 8.7 6.0 5.8 6.0 6.4 6.4 6.7 6.4 6.2
9.4 9.7 9.9 9.8 9.4 9.5 9.5 9.5 9.5 9.5 9.5 9.4 9.3 9.3 9.4 9.4 9.4 9.5 9.5 9.5 9.5 8.3 9.5 9.1 9.2 9.3 9.5 9.5 9.5 9.6 9.7 9.5 9.6 9.5 8.4 6.2 5.6 6.3 6.5 6.2 6.3 6.3 6.4
9.4 9.5 9.7 9.6 9.4 9.4 9.5 9.6 9.6 9.7 9.6 9.6 9.5 8.8 8.7 9.4 9.5 9.5 9.6 9.5 9.4 9.5 9.5 9.5 9.6 9.5 9.4 9.5 9.4 9.6 9.7 9.7 9.6 9.5 9.0 6.3 5.5 6.2 6.6 6.2 6.3 5.9 6.2
9.3 9.5 9.6 9.6 9.1 8.9 9.1 9.6 9.6 9.7 9.6 9.6 9.5 9.4 9.4 9.6 9.6 9.5 8.8 9.5 9.5 9.5 9.5 9.3 9.6 9.5 9.6 9.6 9.6 9.6 9.7 9.7 9.6 9.5 9.5 6.6 5.6 5.8 6.4 6.3 6.0 5.7 5.8
9.4 9.5 9.7 9.6 9.2 8.4 8.0 8.5 8.3 9.6 9.3 9.5 9.6 9.5 9.1 9.3 9.5 9.6 9.1 9.6 9.6 9.6 8.2 8.8 9.1 9.6 9.7 9.6 9.8 9.6 9.6 9.6 9.6 9.5 9.6 8.9 6.6 5.6 5.8 6.1 5.8 5.9 5.8
9.5 9.6 9.6 9.6 9.4 8.6 7.9 7.8 9.0 9.5 9.6 9.7 9.6 9.3 9.3 9.1 9.1 9.1 8.1 9.7 8.3 7.6 7.3 8.8 9.3 9.4 9.8 9.7 9.6 9.7 9.6 9.5 9.6 9.5 9.5 9.5 9.0 6.1 5.7 5.8 5.9 5.9 5.7
9.4 9.2 9.2 9.7 9.7 8.2 7.9 7.4 7.0 9.4 9.6 9.6 9.6 9.6 9.4 9.2 7.4 7.0 7.7 8.1 8.6 8.8 9.3 9.5 9.2 8.8 8.2 9.7 9.6 9.8 9.9 9.7 9.6 9.5 9.5 9.5 9.6 9.6 7.0 5.6 5.6 5.5 5.7
9.5 9.4 9.3 9.5 9.6 9.5 9.4 9.3 9.4 9.4 9.5 9.6 9.5 9.3 8.9 7.6 7.4 6.9 6.3 6.8 6.4 7.5 7.5 8.1 9.2 9.4 8.8 8.1 9.6 9.7 9.7 9.9 10.1 9.8 9.7 9.6 9.5 9.5 9.6 6.8 5.6 5.7 5.8
9.5 9.4 9.3 9.5 9.1 9.0 9.2 8.8 8.0 7.6 7.9 7.6 7.5 7.9 7.5 7.5 7.3 7.5 8.0 7.3 6.7 7.7 7.5 8.0 7.6 9.3 9.2 9.4 9.6 9.6 9.8 9.9 10.0 10.0 10.0 9.7 9.6 9.6 9.6 9.6 8.5 7.9 5.4
9.4 9.3 9.2 9.0 8.9 8.6 8.5 8.0 8.5 8.7 8.7 9.0 8.8 9.2 8.9 8.0 7.4 6.8 6.8 7.9 7.3 7.9 9.2 9.1 8.4 8.1 9.0 9.2 9.1 9.2 9.5 9.7 9.7 9.9 10.2 10.2 10.0 9.7 9.6 9.6 9.5 9.5 9.0
9.2 9.2 9.0 8.7 8.9 8.3 9.2 8.2 7.7 7.9 9.5 9.7 8.3 8.1 8.7 9.1 8.6 7.9 8.3 9.4 9.4 9.6 9.0 8.4 8.1 8.4 9.2 8.6 8.8 8.9 8.6 9.1 9.6 9.8 9.9 10.0 9.9 9.9 10.0 9.6 9.6 9.5 9.5
9.1 9.1 8.7 7.7 7.7 7.7 7.8 9.0 9.4 9.4 9.0 9.6 9.6 9.7 9.6 9.3 8.1 7.8 8.9 9.4 9.4 8.4 9.1 8.8 7.4 7.3 8.3 9.0 8.3 8.5 8.1 8.2 8.9 9.5 9.3 9.8 9.6 9.9 10.1 9.8 9.7 9.5 9.5
9.1 9.3 8.5 8.3 7.5 7.6 7.5 8.8 8.6 8.9 9.1 9.4 9.6 9.8 8.9 9.5 8.0 8.2 8.9 9.3 9.3 8.9 8.0 8.1 7.8 6.9 7.1 8.3 8.7 8.1 8.7 9.0 7.9 7.8 8.8 9.5 9.7 9.7 9.6 10.0 10.1 9.6 9.5
9.3 9.3 8.9 7.0 7.1 7.5 7.7 7.7 9.0 9.1 9.5 9.6 9.7 9.1 8.4 8.9 8.0 8.8 9.2 8.9 9.2 9.5 8.8 7.4 6.7 7.0 6.6 7.1 8.2 8.3 8.4 8.7 8.6 8.4 8.1 8.5 9.3 9.7 9.9 9.9 10.0 10.0 9.6
9.3 9.3 8.7 7.1 7.2 7.4 7.8 7.8 7.4 8.0 7.8 9.1 9.2 9.4 9.6 9.7 9.8 9.6 9.1 8.3 8.7 8.8 9.2 8.1 8.0 7.1 6.9 6.4 6.7 7.3 7.9 7.6 8.1 7.4 8.1 8.6 8.7 8.5 9.2 9.9 9.9 10.0 9.7
Wind_Speed
7 10 4 6 10 13 17 19 20 21 21 21 21 20 18 17 16 14 15 16 15 14 13 11 11 11 13 12 12 12 12 13 12 12 14 14 14 14 12 11 9 14 11
13 13 8 10 13 15 18 18 18 19 20 20 20 19 17 16 16 15 15 15 14 12 12 12 12 11 11 11 11 11 11 10 10 10 11 11 13 13 11 7 7 14 11
12 15 13 11 15 17 18 18 19 18 18 18 19 18 16 16 15 15 15 14 13 12 11 10 10 9 8 8 9 8 8 6 7 7 8 11 12 11 13 12 12 12 13
14 15 16 14 16 17 17 17 17 18 18 17 17 17 16 15 14 13 14 13 11 10 9 8 8 8 7 6 5 4 5 6 7 8 10 6 14 9 12 12 12 11 11
12 14 17 14 16 17 18 19 18 17 17 16 15 15 14 13 14 13 12 12 10 9 8 7 7 6 4 4 3 2 1 4 4 9 4 3 1 13 11 11 12 10 10
13 14 15 14 16 16 17 18 17 17 16 15 14 14 13 12 11 11 10 10 9 7 6 5 6 4 2 2 1 1 2 3 4 1 2 6 8 14 10 8 10 9 12
14 15 16 14 14 15 15 16 17 16 15 14 13 12 11 10 9 8 7 7 6 5 4 4 3 2 2 1 1 2 3 2 6 1 4 4 12 12 9 11 11 9 9
14 16 15 13 14 13 14 14 16 15 15 14 12 11 10 8 7 6 4 4 3 3 2 2 2 2 1 3 4 4 5 6 3 5 2 2 12 10 10 10 12 10 9
15 14 15 15 14 13 13 14 15 14 12 12 10 8 7 6 6 5 4 2 1 2 3 4 5 3 3 4 8 6 6 7 8 2 8 7 14 10 9 11 12 10 9
11 11 9 11 13 12 12 11 12 13 12 10 9 8 7 6 5 6 4 6 4 5 6 6 10 7 5 4 6 7 8 9 11 1 8 10 13 10 9 12 11 11 10
10 11 13 13 12 10 11 11 10 9 10 9 9 8 8 9 8 10 6 1 4 6 7 8 10 9 6 10 6 5 8 9 4 2 6 12 11 10 10 11 11 12 12
13 11 10 10 12 11 10 11 9 10 12 11 10 9 10 7 6 9 7 3 7 8 9 9 7 8 10 10 5 9 9 6 6 3 6 11 10 9 9 12 13 12 13
12 10 10 8 11 10 8 10 9 9 9 10 10 10 10 7 8 8 8 7 7 7 10 9 6 9 4 6 9 7 6 6 8 1 6 6 9 9 8 11 12 10 12
12 10 9 10 8 9 8 9 8 7 7 8 8 9 10 8 7 7 8 8 7 9 7 8 6 7 8 7 8 8 7 7 6 4 2 5 10 11 9 11 11 11 12
12 11 10 9 8 9 8 7 7 5 8 8 8 9 11 9 6 9 8 9 10 9 10 7 9 8 8 8 8 8 9 7 7 9 7 11 12 13 12 11 12 13 14
11 11 10 11 11 11 7 8 6 7 7 9 10 9 9 12 9 10 6 10 9 11 9 11 8 8 8 8 8 10 10 10 8 8 9 7 11 16 16 14 14 15 15
10 10 10 10 10 9 9 9 9 10 9 9 10 10 13 13 14 11 10 9 8 10 12 12 11 10 8 10 8 11 10 12 12 11 12 12 11 20 20 18 17 16 17
7 8 8 7 8 9 8 8 8 11 11 11 11 13 13 15 16 11 9 8 13 11 13 9 8 7 8 10 8 8 8 11 14 14 14 14 13 14 21 22 20 19 19
8 7 7 7 8 8 9 10 10 10 10 12 12 11 13 13 14 12 9 12 13 14 10 9 10 10 8 8 10 9 9 9 10 15 15 15 15 14 14 22 24 22 21
7 8 6 5 6 6 4 5 5 6 8 9 10 11 14 13 14 12 11 13 14 9 10 10 11 10 10 10 10 10 10 10 10 11 11 16 17 17 16 15 16 18 25
7 6 6 5 4 4 4 4 5 6 5 6 9 11 11 8 9 9 9 10 12 10 11 10 10 12 11 11 9 11 11 13 13 13 11 11 12 17 17 17 16 17 18
6 6 6 5 6 5 4 2 3 3 4 5 3 4 4 6 5 7 7 8 8 9 10 11 12 11 11 8 9 11 10 11 13 14 13 13 14 15 14 19 19 18 18
7 6 6 5 5 3 1 3 3 4 5 5 3 5 4 7 7 8 10 9 9 9 9 10 9 12 11 11 13 9 7 10 11 10 15 13 15 12 12 16 18 20 21
8 7 7 7 6 5 3 1 2 5 5 6 5 5 7 8 9 9 9 10 8 9 9 9 7 9 10 11 9 11 16 14 7 8 7 9 12 14 14 11 12 19 21
10 10 10 8 6 4 2 2 4 3 3 4 5 6 6 6 7 8 7 8 8 7 7 9 8 10 9 10 10 9 10 12 13 11 11 8 9 10 11 12 12 13 20
10 10 9 8 6 4 2 1 2 1 3 4 4 5 4 4 4 2 7 8 9 8 10 9 10 11 11 10 10 11 10 7 10 9 12 15 14 10 10 11 11 11 17
Wind_Direction
173 137 174 149 119 112 113 118 113 115 117 118 117 120 118 120 115 107 109 112 115 114 115 105 106 103 116 107 113 112 115 118 120 125 123 119 118 117 121 119 140 105 109
150 140 141 136 126 125 123 125 118 120 123 121 119 125 125 125 117 114 113 111 112 112 111 109 110 108 116 117 119 118 120 130 136 134 126 120 122 123 121 105 76 104 113
140 132 145 132 132 132 132 131 127 126 127 125 124 127 132 126 121 122 114 111 114 111 104 103 106 111 114 119 122 123 124 135 129 143 159 162 117 127 120 107 105 114 108
142 144 135 137 133 132 132 134 132 134 133 128 127 132 130 126 120 113 107 107 105 102 101 101 106 113 120 120 115 119 129 140 141 177 217 106 122 123 121 119 118 121 119
134 135 122 132 128 127 129 131 136 139 137 131 130 128 125 127 120 116 114 107 104 99 98 104 102 106 121 125 127 120 135 148 174 223 134 91 173 116 125 131 135 143 156
136 137 133 135 130 137 137 138 142 142 138 135 133 132 129 129 120 116 115 109 103 102 100 89 82 74 68 91 105 176 203 187 220 351 323 121 72 122 141 139 118 114 124
128 133 139 137 133 129 127 138 142 142 142 136 134 134 133 128 121 114 109 107 110 104 86 75 74 79 29 353 325 291 278 253 302 330 261 125 106 139 149 139 136 140 140
132 135 134 132 132 134 141 147 137 139 143 145 144 142 135 133 132 130 126 121 108 86 51 12 344 338 297 293 274 284 298 287 261 269 219 168 120 151 157 149 149 149 152
138 127 140 138 131 135 141 146 141 144 148 148 147 144 144 148 153 157 158 182 259 314 314 314 299 305 295 280 282 295 301 289 272 104 262 199 146 165 166 161 157 156 161
142 143 143 147 150 156 149 143 148 155 157 158 159 159 166 177 187 200 211 203 259 289 299 305 310 314 297 283 282 289 298 277 259 54 243 106 145 170 167 174 171 167 167
161 158 162 162 161 159 156 151 162 167 173 181 190 191 201 231 198 202 215 78 270 282 292 298 302 308 301 249 218 281 282 261 260 251 191 120 160 178 171 184 183 178 180
162 171 167 174 156 169 166 157 180 184 198 206 210 212 233 249 266 309 311 270 269 269 275 266 273 282 251 324 210 200 255 313 279 223 152 152 178 189 187 190 191 193 189
173 176 168 173 165 185 164 185 186 192 208 205 226 229 240 265 242 246 270 253 263 219 270 228 238 249 333 282 273 269 278 258 266 336 78 135 185 198 206 197 196 198 210
183 185 177 175 186 193 174 200 195 208 212 231 218 230 251 249 249 262 285 304 277 278 298 274 288 307 284 272 267 280 265 265 259 225 227 183 200 205 213 202 203 211 219
189 189 186 189 190 197 205 202 240 226 211 243 235 235 259 265 261 264 311 283 291 285 273 262 268 280 295 276 264 259 262 248 246 253 248 162 201 209 220 222 214 214 222
197 196 197 200 199 204 217 215 239 228 260 239 257 254 240 259 268 277 256 270 275 272 301 295 295 291 285 286 261 255 260 258 238 258 256 197 197 210 220 226 225 220 220
194 195 204 212 209 206 218 222 227 240 240 253 253 246 255 257 252 261 265 283 280 290 283 265 270 261 264 270 254 273 262 245 252 242 247 255 216 205 213 222 226 222 222
209 196 210 214 210 205 224 223 239 251 252 255 257 257 247 249 256 263 262 266 271 264 269 266 264 258 257 256 258 265 259 249 245 244 250 255 246 254 197 209 220 223 221
193 189 206 204 217 213 212 231 235 242 245 251 251 263 280 281 268 255 240 252 259 264 271 266 262 253 261 267 264 253 247 252 251 248 243 242 242 245 250 194 207 219 225
198 197 203 200 200 208 228 227 248 257 271 278 269 265 269 272 271 264 254 254 254 254 255 253 258 254 252 257 262 263 254 248 246 245 242 239 236 240 236 240 205 218 221
191 183 187 183 178 218 221 242 247 264 270 279 290 278 278 275 260 262 260 253 250 257 266 266 253 247 255 242 254 251 248 243 245 250 238 236 239 234 237 238 234 241 221
176 176 172 182 185 210 220 255 283 292 286 302 276 275 291 297 288 277 279 280 278 280 270 267 263 259 251 238 234 248 251 247 239 232 236 237 234 233 231 231 237 235 244
174 169 162 175 192 215 214 187 210 238 229 259 300 310 1 301 293 284 279 275 277 267 275 271 264 254 259 245 227 242 255 245 256 234 216 231 234 233 237 233 232 232 234
166 159 147 149 144 141 179 171 1 308 308 357 302 327 303 296 305 299 290 285 280 285 280 276 272 259 259 255 243 228 253 272 271 265 228 220 230 234 235 235 230 227 233
159 152 144 138 138 141 138 345 294 312 341 335 323 319 307 297 305 313 317 308 297 284 280 272 277 269 260 264 261 248 247 250 250 256 267 231 215 224 228 223 238 234 227
161 154 145 147 149 138 139 101 26 359 337 317 338 302 309 299 306 323 326 315 310 303 293 294 288 280 275 263 262 261 246 234 234 233 240 251 261 254 234 224 230 233 240